CDC8987 ZUDJ-ZBYN

Flight info

Callsign CDC8987
Flight time N/A
Altitude 32100
Route EPGAL7/19 EPGAL A581 BODUV W102 ENH/K0980S1010 W102 EMVIL W284 UPSIK W4 LIMGI W175 BISAL
Aircraft A21N/M-SDE2E3FGHIRWXY/LB1

Departure

Time N/A
Airport Tongren Dejiang Airport (Under Construction) (ZUDJ)

Arrival

Time 2026-04-26 08:42
Airport Taiyuan Wusu International Airport (ZBYN)
Time Latitude Longitude Altitude Speed Heading
2026-04-26 07:21 29.75336 109.62054 32128 ft 474 kts 353°
2026-04-26 07:21 29.81919 109.61807 32134 ft 475 kts 353°
2026-04-26 07:22 29.88562 109.61556 32139 ft 474 kts 354°
2026-04-26 07:22 29.91829 109.61434 32007 ft 469 kts 353°
2026-04-26 07:22 29.95054 109.61315 31481 ft 468 kts 353°
2026-04-26 07:22 29.98334 109.61189 31184 ft 474 kts 353°
2026-04-26 07:23 30.01651 109.61061 31166 ft 476 kts 353°
2026-04-26 07:23 30.08267 109.60813 31159 ft 476 kts 353°
2026-04-26 07:24 30.14930 109.60562 31152 ft 478 kts 354°
2026-04-26 07:24 30.21540 109.60314 31135 ft 476 kts 353°
2026-04-26 07:25 30.28179 109.60104 31122 ft 477 kts 355°
2026-04-26 07:25 30.34822 109.60470 31113 ft 480 kts 360°
2026-04-26 07:26 30.41495 109.61085 31112 ft 480 kts
2026-04-26 07:26 30.48129 109.61697 31104 ft 478 kts 360°
2026-04-26 07:27 30.54772 109.62302 31095 ft 479 kts 360°
2026-04-26 07:27 30.61401 109.62907 31106 ft 479 kts 360°
2026-04-26 07:28 30.68049 109.63519 31117 ft 476 kts 360°
2026-04-26 07:28 30.74618 109.64124 31130 ft 477 kts 359°
2026-04-26 07:29 30.81238 109.64731 31125 ft 476 kts 360°
2026-04-26 07:29 30.87821 109.65334 31113 ft 474 kts 359°
2026-04-26 07:30 30.94415 109.65942 31090 ft 474 kts 360°
2026-04-26 07:30 31.01022 109.66551 31071 ft 476 kts 360°
2026-04-26 07:31 31.07613 109.67168 31061 ft 475 kts 359°
2026-04-26 07:31 31.14174 109.67782 31059 ft 474 kts 359°
2026-04-26 07:32 31.20760 109.68393 31059 ft 474 kts 359°
2026-04-26 07:32 31.27333 109.68988 31055 ft 473 kts 359°
2026-04-26 07:33 31.33872 109.69582 31078 ft 473 kts 359°
2026-04-26 07:33 31.40459 109.70187 31102 ft 473 kts 359°
2026-04-26 07:34 31.47018 109.70789 31127 ft 471 kts 359°
2026-04-26 07:34 31.53511 109.71387 31144 ft 471 kts 359°
2026-04-26 07:35 31.60088 109.71992 31153 ft 471 kts 358°
2026-04-26 07:35 31.66598 109.72591 31153 ft 471 kts 359°
2026-04-26 07:36 31.73122 109.73196 31160 ft 471 kts 358°
2026-04-26 07:36 31.79674 109.73805 31156 ft 469 kts 358°
2026-04-26 07:37 31.86179 109.74408 31134 ft 470 kts 358°
2026-04-26 07:37 31.92677 109.75012 31100 ft 470 kts 358°
2026-04-26 07:38 31.99197 109.75620 31069 ft 468 kts 358°
2026-04-26 07:38 32.05697 109.76228 31054 ft 468 kts 358°
2026-04-26 07:39 32.12176 109.76835 31052 ft 468 kts 358°
2026-04-26 07:39 32.18691 109.77816 31055 ft 474 kts
2026-04-26 07:40 32.25106 109.79842 31048 ft 481 kts 12°
2026-04-26 07:40 32.31310 109.82891 31046 ft 485 kts 19°
2026-04-26 07:41 32.37412 109.86289 31054 ft 485 kts 19°
2026-04-26 07:41 32.43487 109.89685 31047 ft 486 kts 19°
2026-04-26 07:42 32.49609 109.93095 31056 ft 485 kts 19°
2026-04-26 07:42 32.55711 109.96496 31044 ft 484 kts 19°
2026-04-26 07:43 32.61785 109.99880 31061 ft 484 kts 19°
2026-04-26 07:43 32.67887 110.03283 31041 ft 484 kts 19°
2026-04-26 07:44 32.73931 110.06662 31023 ft 483 kts 19°
2026-04-26 07:44 32.80007 110.10061 31012 ft 483 kts 19°
2026-04-26 07:45 32.86081 110.13467 31015 ft 482 kts 19°
2026-04-26 07:45 32.92169 110.16882 30996 ft 482 kts 19°
2026-04-26 07:46 32.98223 110.20288 31001 ft 481 kts 19°
2026-04-26 07:46 33.04245 110.23679 31001 ft 481 kts 19°
2026-04-26 07:47 33.10266 110.27075 31020 ft 480 kts 19°
2026-04-26 07:47 33.16332 110.30502 31036 ft 479 kts 19°
2026-04-26 07:48 33.22315 110.33888 31055 ft 478 kts 19°
2026-04-26 07:48 33.28322 110.37293 31078 ft 478 kts 18°
2026-04-26 07:49 33.34309 110.40691 31080 ft 476 kts 18°
2026-04-26 07:49 33.40324 110.44113 31061 ft 476 kts 19°
2026-04-26 07:50 33.49286 110.49223 31047 ft 476 kts 18°
2026-04-26 07:50 33.55257 110.52621 31041 ft 475 kts 18°
2026-04-26 07:51 33.61216 110.56015 31050 ft 475 kts 18°
2026-04-26 07:51 33.67174 110.59420 31074 ft 475 kts 18°
2026-04-26 07:52 33.73096 110.62816 31090 ft 473 kts 18°
2026-04-26 07:52 33.79044 110.66229 31097 ft 474 kts 19°
2026-04-26 07:53 33.85006 110.69657 31096 ft 474 kts 19°
2026-04-26 07:53 33.90926 110.73067 31075 ft 473 kts 19°
2026-04-26 07:54 33.96849 110.76485 31061 ft 473 kts 19°
2026-04-26 07:54 34.02792 110.79918 31042 ft 471 kts 19°
2026-04-26 07:55 34.08702 110.83338 31048 ft 471 kts 19°
2026-04-26 07:55 34.14614 110.86768 31049 ft 471 kts 19°
2026-04-26 07:56 34.20496 110.90183 31059 ft 471 kts 18°
2026-04-26 07:56 34.26391 110.93613 31067 ft 470 kts 18°
2026-04-26 07:57 34.32310 110.97065 31066 ft 471 kts 18°
2026-04-26 07:57 34.38227 111.00326 31062 ft 465 kts 13°
2026-04-26 07:58 34.44335 111.02453 31053 ft 454 kts
2026-04-26 07:58 34.50564 111.03313 31050 ft 445 kts 355°
2026-04-26 07:59 34.56747 111.03365 31037 ft 444 kts 353°
2026-04-26 07:59 34.62914 111.03354 31024 ft 443 kts 353°
2026-04-26 08:00 34.69068 111.03351 31005 ft 444 kts 353°
2026-04-26 08:00 34.75216 111.03355 30994 ft 443 kts 353°
2026-04-26 08:01 34.81390 111.03365 30981 ft 444 kts 353°
2026-04-26 08:01 34.87569 111.03373 30985 ft 443 kts 353°
2026-04-26 08:02 34.93723 111.03378 30973 ft 442 kts 353°
2026-04-26 08:02 34.99865 111.03382 30973 ft 442 kts 353°
2026-04-26 08:03 35.05999 111.03511 30973 ft 446 kts 357°
2026-04-26 08:03 35.12227 111.04676 30976 ft 455 kts
2026-04-26 08:04 35.18299 111.07103 30983 ft 467 kts 15°
2026-04-26 08:04 35.24180 111.10471 30986 ft 468 kts 18°
2026-04-26 08:05 35.30056 111.13948 30996 ft 469 kts 17°
2026-04-26 08:05 35.35929 111.17380 30998 ft 468 kts 17°
2026-04-26 08:06 35.41775 111.20802 31010 ft 467 kts 17°
2026-04-26 08:06 35.47652 111.24250 31029 ft 468 kts 17°
2026-04-26 08:07 35.53514 111.27698 31046 ft 468 kts 17°
2026-04-26 08:07 35.59388 111.31158 31030 ft 468 kts 17°
2026-04-26 08:08 35.65239 111.34611 31021 ft 467 kts 17°
2026-04-26 08:08 35.71104 111.38075 31021 ft 469 kts 17°
2026-04-26 08:09 35.76946 111.41537 31012 ft 468 kts 17°
2026-04-26 08:09 35.82795 111.45003 31014 ft 469 kts 17°
2026-04-26 08:10 35.88671 111.48497 31014 ft 468 kts 17°
2026-04-26 08:10 35.94543 111.51990 31014 ft 468 kts 17°
2026-04-26 08:11 36.00411 111.55489 31024 ft 468 kts 16°
2026-04-26 08:11 36.06260 111.58981 31034 ft 467 kts 17°
2026-04-26 08:12 36.12069 111.62457 31041 ft 468 kts 17°
2026-04-26 08:12 36.17927 111.65964 31035 ft 467 kts 17°
2026-04-26 08:13 36.23804 111.69492 31036 ft 468 kts 17°
2026-04-26 08:13 36.29651 111.73007 31035 ft 469 kts 17°
2026-04-26 08:14 36.35492 111.76525 31038 ft 467 kts 17°
2026-04-26 08:14 36.41347 111.80057 31050 ft 467 kts 17°
2026-04-26 08:15 36.47158 111.83570 31064 ft 467 kts 17°
2026-04-26 08:15 36.52996 111.87105 31080 ft 469 kts 17°
2026-04-26 08:16 36.58834 111.90652 31103 ft 468 kts 17°
2026-04-26 08:16 36.64677 111.94204 30745 ft 465 kts 17°
2026-04-26 08:17 36.67609 111.95992 30445 ft 466 kts 17°
2026-04-26 08:17 36.70456 111.97759 29939 ft 463 kts 17°
2026-04-26 08:17 36.73343 111.99562 29248 ft 464 kts 18°
2026-04-26 08:17 36.76241 112.01370 28526 ft 464 kts 18°
2026-04-26 08:18 36.79093 112.03154 27732 ft 465 kts 18°
2026-04-26 08:18 36.82000 112.04975 26925 ft 466 kts 19°
2026-04-26 08:18 36.84895 112.06789 26083 ft 468 kts 19°
2026-04-26 08:18 36.87775 112.08597 25236 ft 469 kts 20°
2026-04-26 08:19 36.90673 112.10418 24307 ft 471 kts 20°
2026-04-26 08:19 36.93597 112.12259 23391 ft 471 kts 20°
2026-04-26 08:19 36.96525 112.14106 22608 ft 468 kts 21°
2026-04-26 08:19 36.99403 112.15931 22035 ft 460 kts 21°
2026-04-26 08:20 37.02229 112.17719 21456 ft 456 kts 21°
2026-04-26 08:20 37.05030 112.19488 20860 ft 451 kts 21°
2026-04-26 08:20 37.07795 112.21298 20259 ft 448 kts 24°
2026-04-26 08:20 37.10480 112.23287 19679 ft 446 kts 27°
2026-04-26 08:21 37.13036 112.25430 19070 ft 444 kts 30°
2026-04-26 08:21 37.15533 112.27721 18472 ft 440 kts 32°
2026-04-26 08:21 37.17947 112.29990 17888 ft 435 kts 32°
2026-04-26 08:21 37.20347 112.32256 17273 ft 431 kts 33°
2026-04-26 08:22 37.22726 112.34501 16724 ft 425 kts 33°
2026-04-26 08:22 37.25056 112.36697 16364 ft 414 kts 33°
2026-04-26 08:22 37.27343 112.38848 16059 ft 403 kts 33°
2026-04-26 08:22 37.29542 112.40911 15708 ft 394 kts 33°
2026-04-26 08:23 37.31717 112.42952 15473 ft 382 kts 33°
2026-04-26 08:23 37.33796 112.44906 15264 ft 371 kts 33°
2026-04-26 08:23 37.35847 112.46837 14991 ft 362 kts 33°
2026-04-26 08:23 37.37808 112.48682 14774 ft 351 kts 33°
2026-04-26 08:24 37.39791 112.50390 14604 ft 336 kts 22°
2026-04-26 08:24 37.41974 112.51024 14397 ft 314 kts 354°
2026-04-26 08:24 37.44000 112.50375 14206 ft 296 kts 330°
2026-04-26 08:24 37.45591 112.48865 14008 ft 283 kts 309°
2026-04-26 08:25 37.46768 112.46943 13882 ft 268 kts 309°
2026-04-26 08:25 37.48239 112.45552 13721 ft 268 kts 337°
2026-04-26 08:25 37.50092 112.45218 13506 ft 277 kts
2026-04-26 08:25 37.51916 112.45992 13110 ft 285 kts 29°
2026-04-26 08:26 37.53478 112.47568 12759 ft 287 kts 45°
2026-04-26 08:26 37.54376 112.49797 12351 ft 293 kts 79°
2026-04-26 08:26 37.54287 112.52321 12021 ft 291 kts 99°
2026-04-26 08:26 37.53968 112.54818 11702 ft 289 kts 97°
2026-04-26 08:27 37.53701 112.57297 11355 ft 287 kts 96°
2026-04-26 08:27 37.53434 112.59803 11036 ft 284 kts 97°
2026-04-26 08:27 37.53168 112.62226 10680 ft 283 kts 97°
2026-04-26 08:27 37.52895 112.64668 10356 ft 281 kts 97°
2026-04-26 08:28 37.52620 112.67094 10039 ft 278 kts 98°
2026-04-26 08:28 37.52346 112.69473 9713 ft 275 kts 98°
2026-04-26 08:28 37.52074 112.71844 9403 ft 272 kts 98°
2026-04-26 08:28 37.51804 112.74182 9062 ft 269 kts 99°
2026-04-26 08:29 37.51551 112.76498 8547 ft 266 kts 94°
2026-04-26 08:29 37.51837 112.78722 8113 ft 258 kts 60°
2026-04-26 08:29 37.53025 112.80293 7742 ft 248 kts 34°
2026-04-26 08:29 37.54446 112.81479 7343 ft 242 kts 36°
2026-04-26 08:30 37.55803 112.82691 6926 ft 237 kts 37°
2026-04-26 08:30 37.57085 112.83881 6636 ft 224 kts 38°
2026-04-26 08:30 37.58366 112.84969 6204 ft 222 kts 25°
2026-04-26 08:30 37.59852 112.85147 5981 ft 210 kts 347°
2026-04-26 08:31 37.61081 112.84313 5951 ft 194 kts 319°
2026-04-26 08:31 37.61970 112.83148 5808 ft 180 kts 309°
2026-04-26 08:31 37.62739 112.81931 5567 ft 175 kts 307°
2026-04-26 08:31 37.63479 112.80697 5349 ft 177 kts 307°
2026-04-26 08:32 37.64213 112.79456 5130 ft 177 kts 308°
2026-04-26 08:32 37.64949 112.78215 4906 ft 177 kts 308°
2026-04-26 08:32 37.65665 112.77010 4723 ft 169 kts 308°
2026-04-26 08:32 37.66350 112.75863 4480 ft 162 kts 308°
2026-04-26 08:33 37.67029 112.74728 4274 ft 161 kts 308°
2026-04-26 08:33 37.67706 112.73597 4068 ft 161 kts 308°
2026-04-26 08:33 37.68370 112.72485 3867 ft 161 kts 308°
2026-04-26 08:33 37.69047 112.71355 3672 ft 161 kts 308°
2026-04-26 08:34 37.69715 112.70237 3465 ft 160 kts 308°
2026-04-26 08:34 37.70379 112.69125 3266 ft 159 kts 309°
2026-04-26 08:34 37.71047 112.68002 3070 ft 158 kts 308°
2026-04-26 08:34 37.71698 112.66898 2869 ft 156 kts 308°
2026-04-26 08:35 37.72353 112.65814 2669 ft 155 kts 309°
2026-04-26 08:35 37.72989 112.64745 2721 ft 149 kts 308°
2026-04-26 08:35 37.73607 112.63706 3203 ft 154 kts 310°
2026-04-26 08:35 37.74244 112.62601 3690 ft 162 kts 296°
2026-04-26 08:36 37.74332 112.61220 4254 ft 163 kts 250°
2026-04-26 08:36 37.73667 112.60078 4704 ft 165 kts 220°
2026-04-26 08:36 37.72748 112.59124 4972 ft 177 kts 216°
2026-04-26 08:36 37.71634 112.58382 5213 ft 186 kts 189°
2026-04-26 08:37 37.70363 112.58648 5454 ft 193 kts 150°
2026-04-26 08:37 37.69367 112.59815 5704 ft 199 kts 128°
2026-04-26 08:37 37.68520 112.61162 5716 ft 195 kts 126°
2026-04-26 08:37 37.67704 112.62516 5630 ft 189 kts 125°
2026-04-26 08:38 37.66949 112.63780 5416 ft 176 kts 126°
2026-04-26 08:38 37.66230 112.64983 5144 ft 165 kts 126°
2026-04-26 08:38 37.65553 112.66117 4819 ft 159 kts 126°
2026-04-26 08:38 37.64948 112.67226 4454 ft 154 kts 114°
2026-04-26 08:39 37.64940 112.68527 3994 ft 151 kts 65°
2026-04-26 08:39 37.65629 112.69473 3723 ft 150 kts 41°
2026-04-26 08:39 37.66469 112.70288 3552 ft 152 kts 36°
2026-04-26 08:39 37.67469 112.70660 3350 ft 154 kts
2026-04-26 08:40 37.68539 112.70534 3179 ft 154 kts 355°
2026-04-26 08:40 37.69584 112.70225 3057 ft 155 kts 330°
2026-04-26 08:40 37.70375 112.69287 3077 ft 158 kts 309°
2026-04-26 08:40 37.70988 112.68158 3066 ft 157 kts 304°
2026-04-26 08:41 37.71617 112.67020 2902 ft 157 kts 308°
2026-04-26 08:41 37.72282 112.65945 2688 ft 155 kts 308°
2026-04-26 08:41 37.72910 112.64877 2592 ft 139 kts 309°
2026-04-26 08:41 37.73400 112.64076 2591 ft 90 kts 307°
2026-04-26 08:42 37.73681 112.63610 2591 ft 51 kts 318°
2026-04-26 08:42 37.73976 112.63406 2591 ft 46 kts 331°
2026-04-26 08:42 37.74171 112.63145 2591 ft 36 kts 307°
2026-04-26 08:42 37.74297 112.62934 2591 ft 23 kts 306°
2026-04-26 08:43 37.74392 112.62899 2591 ft 15 kts 40°
2026-04-26 08:43 37.74458 112.63000 2591 ft 14 kts 47°
2026-04-26 08:43 37.74548 112.63049 2591 ft 14 kts 352°
2026-04-26 08:43 37.74629 112.62981 2591 ft 14 kts 320°
2026-04-26 08:44 37.74712 112.62914 2591 ft 14 kts 335°
2026-04-26 08:44 37.74804 112.62862 2591 ft 14 kts 337°
2026-04-26 08:44 37.74898 112.62812 2591 ft 14 kts 337°
2026-04-26 08:44 37.74991 112.62817 2591 ft 14 kts 34°
2026-04-26 08:45 37.75070 112.62891 2591 ft 14 kts 37°
2026-04-26 08:45 37.75153 112.62894 2591 ft 12 kts 351°
2026-04-26 08:45 37.75215 112.62859 2591 ft 9 kts 329°
2026-04-26 08:45 37.75261 112.62841 2591 ft 3 kts 355°
2026-04-26 08:46 37.75275 112.62839 2591 ft 0 kts 352°
2026-04-26 08:46 37.75280 112.62837 2591 ft 0 kts 351°
2026-04-26 08:46 37.75281 112.62837 2591 ft 0 kts 351°